Location: Asheville, NC
(35.6000°N, 82.5500°W)
Time: 00:27:16
(UTC-04:00)

AO-73 - Pass Details

Date: 10 March 2018
Orbit: 582 x 665 km, 97.6° (Epoch: 18 June)

Event Time Altitude Azimuth Distance (km) Brightness Sun altitude
Rises 20:17:20 0° 184° (S) 2,902 ? -21.8°
Reaches altitude 10° 20:19:39 10° 191° (SSW) 1,985 ? -22.3°
Maximum altitude 20:23:43 40° 262° (W) 911 ? -23.1°
Drops below altitude 10° 20:27:42 10° 332° (NNW) 1,952 ? -23.9°
Sets 20:29:58 0° 340° (NNW) 2,847 ? -24.3°
